Hourly Data Report for June 16, 2021

FISHER BRANCH (AUT)
MANITOBA
Current Station Operator: ECCC - MSC

51°05'00.100" N
97°33'16.200" W
253.00 m
50309J6
71442
WSZ

Download Data

Hourly Data (June 2021)
Hourly Data Report for June 16, 2021
TIME
LST
Temp Definition
°C
Dew Point Definition
°C
Rel Hum Definition
%
Precip. Amount Definition
mm

Wind Dir Definition
10's deg

Wind Spd Definition
km/h
Visibility Definition
km
Stn Press Definition
kPa
Hmdx Definition


Wind Chill Definition


Weather Definition


00:00 19.6 11.5 59 0.0 17 15   98.69     LegendNANA
01:00 18.4 11.4 64 0.0 16 14   98.63     LegendNANA
02:00 18.4 11.4 64 0.0 15 20   98.55     LegendNANA
03:00 16.8 11.2 69 0.0 14 16   98.49     LegendNANA
04:00 15.7 11.4 75 0.0 14 16   98.42     LegendNANA
05:00 16.5 11.5 72 0.0 15 15   98.41     LegendNANA
06:00 17.7 12.1 70 0.0 14 16   98.35     LegendNANA
07:00 20.1 13.0 63 0.0 16 17   98.33     LegendNANA
08:00 22.1 13.2 57 0.0 15 21   98.24 25   LegendNANA
09:00 23.5 13.4 53 0.0 16 24   98.06 27   LegendNANA
10:00 25.7 12.9 45 0.0 15 37   97.88 28   LegendNANA
11:00 26.8 12.8 42 0.0 15 32   97.83 29   LegendNANA
12:00 28.2 12.2 37 0.0 18 36   97.81 31   LegendNANA
13:00 28.1 14.3 43 0.0 17 31   97.76 32   LegendNANA
14:00 28.6 14.4 42 0.0 19 31   97.71 32   LegendNANA
15:00 29.2 15.0 42 0.0 19 31   97.67 33   LegendNANA
16:00 30.5 15.5 40 0.0 20 26   97.59 35   LegendNANA
17:00 31.0 14.9 38 0.0 20 24   97.52 35   LegendNANA
18:00 28.2 8.9 30 0.0 29 34   97.62 29   LegendNANA
19:00 26.2 8.7 33 0.0 28 28   97.68 27   LegendNANA
20:00 24.5 8.0 35 0.0 27 18   97.74 25   LegendNANA
21:00 22.4 8.0 40 0.0 26 14   97.82     LegendNANA
22:00 20.7 7.3 42 0.0 26 12   97.86     LegendNANA
23:00 18.0 8.0 52 0.0 23 7   97.85     LegendNANA

Notes on Data Quality.

Legend

  • E = Estimated
  • M = Missing
  • NA = Not Available*
  • [empty] = Indicates an unobserved value
Date modified: